Regional Weather Roundup
Issued by NWS Raleigh/Durham, NC

Home | Current Version | Previous Version | Text Only | Print | Product List | Glossary On
Versions: 1 2 3 4 5 6 7 8 9 10 11 12 13 14 15 16 17 18 19 20 21 22 23 24 25 26 27 28 29 30 31 32 33 34 35 36 37 38 39 40 41 42 43 44 45 46 47 48 49 50
000
ASUS42 KRAH 301310
RWRRAH
NORTH CAROLINA WEATHER ROUNDUP
NATIONAL WEATHER SERVICE RALEIGH NC
900 AM EDT SAT APR 30 2016

NOTE: "FAIR" INDICATES FEW OR NO CLOUDS BELOW 12,000 FEET WITH NO
SIGNIFICANT WEATHER AND/OR OBSTRUCTIONS TO VISIBILITY.

NCZ001-053-055-056-065-067-301400-
WESTERN NORTH CAROLINA

CITY           SKY/WX    TMP DP  RH WIND       PRES   REMARKS
ASHEVILLE      MOSUNNY   62  51  67 CALM      30.07R
JEFFERSON      CLOUDY    54  52  92 SE3       30.12R
MORGANTON      CLOUDY    63  59  87 NE5       30.13R
HICKORY        CLOUDY    60  60 100 NE7       30.08R FOG
RUTHERFORDTON  MOSUNNY   65  58  80 E6        30.07R
MOUNT AIRY     CLOUDY    59  56  89 E7        30.12F
BOONE          PTSUNNY   56  53  89 E6        30.13S
$$

NCZ021-022-025-041-071-084-088-301400-
CENTRAL NORTH CAROLINA

CITY           SKY/WX    TMP DP  RH WIND       PRES   REMARKS
CHARLOTTE      CLOUDY    65  62  90 E7        30.05S FOG
GREENSBORO     DRIZZLE   59  58  96 E9        30.10R FOG
WINSTON-SALEM  CLOUDY    59  56  89 E9        30.11S
RALEIGH-DURHAM CLOUDY    59  56  89 E9        30.13S
FORT BRAGG     CLOUDY    62  59  91 E9        30.09S
FAYETTEVILLE   CLOUDY    63  59  87 NE5       30.10R
BURLINGTON     CLOUDY    59  56  89 E7        30.11R
LAURINBURG     CLOUDY    66  60  81 E12       30.09R
$$

NCZ011-015-027-028-043-044-047-080-103-301400-
NORTHEASTERN NORTH CAROLINA

CITY           SKY/WX    TMP DP  RH WIND       PRES   REMARKS
ROCKY MT-WILSO CLOUDY    58  54  86 NE7       30.14R
GREENVILLE     CLOUDY    59  55  88 E6        30.15R
WASHINGTON     CLOUDY    57  54  88 NE5       30.15R
ELIZABETH CITY CLOUDY    56  52  86 NE13      30.15R
MANTEO         NOT AVBL
CAPE HATTERAS  CLOUDY    60  54  80 NE12G18   30.13R
$$

NCZ078-087-090-091-093-098-101-301400-
SOUTHEASTERN NORTH CAROLINA

CITY           SKY/WX    TMP DP  RH WIND       PRES   REMARKS
LUMBERTON      CLOUDY    66  60  81 E8        30.08R
GOLDSBORO      CLOUDY    61  61 100 E6        30.11S
KINSTON        PTSUNNY   61  57  88 E6        30.14R
KENANSVILLE    CLOUDY    59  58  94 CALM      30.13S FOG
NEW BERN       CLOUDY    59  54  83 NE3       30.15R
CHERRY POINT   CLOUDY    61  56  83 NE5       30.14S
BEAUFORT       CLOUDY    61  56  83 NE8       30.13S
JACKSONVILLE   CLOUDY    60  57  89 NE12      30.12R FOG
WILMINGTON     CLOUDY    65  60  84 E10       30.10R
$$




USA.gov is the U.S. government's official web portal to all federal, state and local government web resources and services.